Location: Brompton
(51.4000°N, 0.5333°E)
Time: 17:48:17
(UTC+00:00)

Cosmos 1536 - Pass Details

Date: 28 September 2021
Orbit: 539 x 558 km, 82.5° (Epoch: 24 October)

Event Time Altitude Azimuth Distance (km) Brightness Sun altitude
Rises 02:08:19 0° 5° (N) 2,713 7.0 -32.6°
Reaches altitude 10° 02:11:54 10° 39° (NE) 1,813 6.3 -32.3°
Maximum altitude 02:13:20 12° 60° (ENE) 1,706 6.1 -32.1°
Drops below altitude 10° 02:14:47 10° 82° (E) 1,808 6.0 -31.9°
Sets 02:18:19 0° 115° (ESE) 2,694 6.6 -31.5°
